Regional Weather Roundup
Issued by NWS

Home | Current Version | Previous Version | Text Only | Print | Product List | Glossary Off
Versions: 1 2 3 4 5 6 7 8 9 10 11 12 13 14 15 16 17 18 19 20 21 22 23 24 25 26 27 28 29 30 31 32 33 34 35 36 37 38 39 40 41 42 43 44 45 46 47 48 49 50

000
ASUS43 KMPX 180310
RWRMN
WEATHER ROUNDUP FOR MINNESOTA
NATIONAL WEATHER SERVICE TWIN CITIES/CHANHASSEN MN
1000 PM CDT TUE OCT 17 2017


NOTE: "FAIR" INDICATES FEW OR NO CLOUDS BELOW 12,000 FEET WITH NO
SIGNIFICANT WEATHER AND/OR OBSTRUCTIONS TO VISIBILITY. N/A MEANS
CURRENT SKY AND/OR WEATHER CONDITIONS ARE NOT AVAILABLE.

MNZ060>063-068>070-180400-
   Twin Cities Metro

CITY           SKY/WX    TMP DP  RH WIND       PRES   REMARKS
TWIN CITIES    CLEAR     63  45  51 S7        29.91S
ST PAUL        CLEAR     56  47  71 SE8       29.92S
CRYSTAL        CLEAR     59  41  51 S7        29.89S
BLAINE         CLEAR     57  45  62 S7        29.89S
LAKEVILLE      CLEAR     57  45  62 S8        29.92S
EDEN PRAIRIE   CLEAR     59  44  57 S8        29.89F
SOUTH ST PAUL  CLEAR     60  44  55 S6        29.91S
LAKE ELMO      FAIR      57  45  62 S8        29.92S
$$
MNZ001>005-007-008-013>017-022>024-027-028-180400-
   Northwest Minnesota

CITY           SKY/WX    TMP DP  RH WIND       PRES   REMARKS
BEMIDJI        CLEAR     58  40  50 S8        29.74S
HALLOCK        CLEAR     55  30  38 S10       29.57F
ROSEAU         CLEAR     57  45  62 S13       29.61F
WARROAD        CLEAR     61  45  55 S10G16    29.62F
THIEF RVR FALL CLEAR     60  41  49 S14       29.66F
CROOKSTON      CLEAR     61  41  48 S16       29.65F
FOSSTON        CLEAR     61  39  44 S17       29.71S
DETROIT LAKES  CLEAR     57  41  54 S8        29.77F
MOORHEAD       CLEAR     57  43  58 S9        29.73S
PARK RAPIDS    CLEAR     54  41  61 S8        29.78S
MAHNOMEN       FAIR      59  41  51 S16       29.72S
$$
MNZ006-009>011-018-025>026-180400-
   North Central Minnesota

CITY           SKY/WX    TMP DP  RH WIND       PRES   REMARKS
BAUDETTE       CLEAR     58  39  49 S12       29.66F
FLAG ISLAND    CLEAR     54  46  76 S10       29.60S
INTL FALLS     CLEAR     59  37  44 S8        29.71F
WASKISH        CLEAR     61  39  44 S10G18    29.70S
BIG FORK       CLEAR     57  39  51 S6        29.75F
LONGVILLE      CLEAR     63  37  39 S9G16     29.78F
GRAND RAPIDS   CLEAR     57  40  52 S12       29.81F
CRANE LAKE     CLOUDY    55  37  50 S5        29.78F
ORR            CLEAR     55  36  47 S7        29.75F
COOK           CLEAR     61  37  41 S8G17     29.79F
WALKER         FAIR      60  39  44 SW12      29.76F
$$
MNZ012-019>021-037-180400-
   Northeast Minnesota

CITY           SKY/WX    TMP DP  RH WIND       PRES   REMARKS
DULUTH         CLEAR     59  41  51 SW14      29.85F
ELY            CLOUDY    55  36  47 S7        29.82S
HIBBING        CLEAR     53  36  52 S3        29.81F
EVELETH        CLEAR     45  34  65 CALM      29.84S
DULUTH HARBOR  CLEAR     57  45  62 CALM      29.85S
TWO HARBORS    CLEAR     46  41  81 CALM      29.84F
SILVER BAY     CLEAR     43  39  87 CALM      29.85S
GRAND MARAIS     N/A     44  42  93 CALM      29.86F
G MARAIS ARPRT CLOUDY    46  36  66 CALM      29.88S
$$
MNZ029>031-032-039>041-046>048-054>057-064-180400-
   West Central Minnesota

CITY           SKY/WX    TMP DP  RH WIND       PRES   REMARKS
FERGUS FALLS   CLEAR     57  43  58 S9        29.79S
WHEATON        CLEAR     57  41  54 S10       29.80S
MORRIS         CLEAR     52  41  66 S10       29.81F
ALEXANDRIA     CLEAR     61  39  44 S12       29.83F
ELBOW LAKE     FAIR      55  41  60 S8        29.81S
WADENA         CLEAR     54  41  62 S5        29.79F
GLENWOOD       CLEAR     54  41  62 S9        29.85S
APPLETON       CLEAR     63  37  39 S8        29.83S
BENSON         CLEAR     55  39  54 SW8       29.85S
ORTONVILLE     CLEAR     55  41  58 N5        29.82S
MADISON        CLEAR     54  43  66 S7        29.84S
WILLMAR        FAIR      55  41  58 CALM      29.88S
$$
MNZ033>034-036-042>043-049>051-058-059-180400-
   Central Minnesota

CITY           SKY/WX    TMP DP  RH WIND       PRES   REMARKS
ST CLOUD       CLEAR     52  42  69 S8        29.86F
SAUK CENTRE    FAIR      55  40  57 S9        29.84F
PAYNESVILLE    CLEAR     62  39  43 S8        29.87S
AITKIN         CLEAR     57  41  54 S12       29.81F
PINE RIVER     CLEAR     48  37  66 S6        29.84S
BRAINERD       CLEAR     56  39  53 S9        29.82F
STAPLES        CLEAR     54  39  58 S7        29.81S
LONG PRAIRIE   FAIR      57  37  47 SE8       29.84S
LITTLE FALLS   CLEAR     54  32  43 S6        29.84F
LITCHFIELD     CLEAR     61  41  48 S3        29.88S
BUFFALO        CLEAR     57  41  55 SE5       29.89S
MAPLE LAKE     CLEAR     57  43  58 S3        29.89S
HUTCHINSON     CLEAR     58  40  52 S6        29.90S
$$
MNZ037-044-045-052-053-180400-
   East Central Minnesota

CITY           SKY/WX    TMP DP  RH WIND       PRES   REMARKS
PRINCETON      CLEAR     55  43  62 SE6       29.87F
MORA           CLEAR     55  41  58 S3        29.88F
CAMBRIDGE      CLEAR     57  43  58 S6        29.88S
RUSH CITY      MOCLDY    55  42  61 S6        29.88F
MOOSE LAKE     CLEAR     50  41  71 CALM      29.84S
HINCKLEY       FAIR      55  43  62 S5        29.87F
CLOQUET        CLEAR     55  37  50 S5        29.85F
MCGREGOR       CLEAR     55  41  58 S6        29.83F
$$
MNZ071>073-080-081-089-090-097-098-180400-
   Southwest Minnesota

CITY           SKY/WX    TMP DP  RH WIND       PRES   REMARKS
MONTEVIDEO     CLEAR     57  39  51 SW8       29.85F
GRANITE FALLS  CLEAR     53  43  67 S8        29.88S
CANBY          CLEAR     61  40  45 SW7       29.86F
MARSHALL       CLEAR     57  41  55 S12       29.87F
REDWOOD FALLS  CLEAR     57  39  51 S9        29.89R
OLIVIA         CLEAR     55  41  58 S8        29.87S
PIPESTONE      CLEAR     59  43  55 S9        29.91S
WORTHINGTON    CLEAR     59  44  57 S13       29.95S
JACKSON        CLEAR     54  43  66 S8        29.96S
TRACY          CLEAR     63  42  46 S14       29.89S
SLAYTON        CLEAR     59 -25   3 S14G20    29.93R
$$
MNZ065>067-074>077-082>085-091>093-180400-
   South Central Minnesota

CITY           SKY/WX    TMP DP  RH WIND       PRES   REMARKS
MANKATO        CLEAR     58  44  60 S7        29.93S
NEW ULM          N/A     57  39  51 S12       29.91S
ST JAMES       CLEAR     57  45  62 S10       29.94R
FAIRMONT       CLEAR     59  45  59 S14       29.95S
GLENCOE        CLEAR     60  40  48 S8        29.90R
FARIBAULT      CLEAR     57  45  62 S7        29.95S
OWATONNA       CLEAR     59  45  58 S10       29.95S
WASECA         CLEAR     55  45  67 S7        29.96S
ALBERT LEA     CLEAR     61  46  59 S8        29.97F
$$
MNZ078>079-086>088-094>096-180400-
   Southeast Minnesota

CITY           SKY/WX    TMP DP  RH WIND       PRES   REMARKS
ROCHESTER      CLEAR     53  45  74 S13       29.99F
RED WING       CLEAR     57  41  54 CALM      29.93F
STANTON        CLEAR     58  45  60 S8        29.92F
DODGE CENTER   CLEAR     57  43  58 S12       29.97S
WINONA         CLEAR     52  46  82 CALM      29.98F
AUSTIN         CLEAR     55  45  67 S7        29.98S
PRESTON        CLEAR     56  42  59 S7        30.01S
$$
ABBREVIATIONS USED IN REMARKS
   TC - TEMPERATURES IN CELSIUS
  WCI - WIND CHILL INDEX
   HX - HEAT INDEX
  VSB - VISIBILITY
$$



USA.gov is the U.S. government's official web portal to all federal, state and local government web resources and services.